Christman Field Latest Observations
Date Time
MST
Temp
°F
RH
%
DewPt
°F
Wind
mph
Dir
°
Gust
mph
Dir
°
Press
in Hg
Solar
W/m^2
Prec
in
2019-08-19 00:50 55.8 72.6 47.1 5.4 340 6.6 338 24.871 0.0 0.00
2019-08-19 00:45 56.2 79.1 49.8 3.5 327 4.8 331 24.873 0.0 0.00
2019-08-19 00:40 58.1 72.3 49.2 3.0 340 3.7 331 24.873 0.1 0.00
2019-08-19 00:35 59.2 70.7 49.7 2.8 351 3.6 324 24.873 0.0 0.00
2019-08-19 00:30 59.7 68.4 49.3 3.4 324 4.1 311 24.872 0.1 0.00
2019-08-19 00:25 58.9 70.2 49.2 4.0 305 4.7 304 24.872 0.1 0.00
2019-08-19 00:20 57.7 71.7 48.6 4.1 322 5.1 329 24.872 0.1 0.00
2019-08-19 00:15 57.2 74.2 49.1 2.6 316 3.8 328 24.872 0.1 0.00
2019-08-19 00:10 57.3 75.5 49.7 2.6 322 3.7 285 24.872 0.2 0.00
2019-08-19 00:05 58.4 74.3 50.2 3.8 292 4.4 291 24.872 0.0 0.00
2019-08-19 00:00 60.3 67.8 49.6 3.8 327 4.8 342 24.872 0.0 0.00
2019-08-18 23:55 60.6 67.8 49.9 3.4 342 4.3 346 24.870 0.1 0.00
2019-08-18 23:50 59.1 71.6 50.0 2.8 357 4.0 21 24.870 0.0 0.00
2019-08-18 23:45 59.1 75.5 51.3 3.6 21 4.2 21 24.870 0.0 0.00
2019-08-18 23:40 59.6 77.7 52.6 4.3 14 5.1 16 24.872 0.0 0.00
2019-08-18 23:35 61.4 75.7 53.7 1.9 28 4.6 28 24.872 0.0 0.00
2019-08-18 23:30 60.4 78.8 53.8 0.7 275 1.7 275 24.872 0.1 0.00
2019-08-18 23:25 61.0 73.9 52.6 1.6 287 2.0 293 24.872 0.1 0.00
2019-08-18 23:20 61.2 74.3 52.9 1.8 293 2.1 315 24.873 0.1 0.00
2019-08-18 23:15 60.5 79.3 54.1 0.8 308 1.8 308 24.876 0.1 0.00
2019-08-18 23:10 61.0 78.9 54.4 0.9 328 1.7 343 24.875 0.1 0.00
2019-08-18 23:05 61.2 79.1 54.6 0.1 325 0.6 320 24.875 0.2 0.00
2019-08-18 23:00 61.2 79.3 54.8 0.2 320 1.1 340 24.876 0.1 0.00
2019-08-18 22:55 61.4 78.4 54.6 1.6 340 2.5 351 24.874 0.1 0.00
2019-08-18 22:50 62.5 71.3 53.1 2.3 358 3.3 353 24.873 0.2 0.00
2019-08-18 22:45 61.9 75.6 54.1 2.8 342 3.8 8 24.872 0.2 0.00
2019-08-18 22:40 61.0 78.9 54.4 2.3 354 3.6 353 24.873 0.2 0.00
2019-08-18 22:35 61.8 76.0 54.2 3.3 311 4.4 317 24.871 0.2 0.00
2019-08-18 22:30 62.9 69.9 53.0 2.8 307 3.4 331 24.870 0.1 0.00
2019-08-18 22:25 64.4 70.0 54.4 2.9 309 3.6 325 24.871 0.1 0.00
CIRA

Cooperative Institute for Research in the Atmosphere

CIRA Software Engineering Group (CSEG)


About the team


The CIRA Software Engineering Group (CSEG) began as an informal, enthusiastic grassroots group in April of 2014. Since then, it has grown into an active and cross-cutting group with representation from teams at CIRA-Fort Collins, CIRA-Boulder, the National Parks Service (NPS), the CSU Department of Atmospheric Science, the CSU Department of Soil and Crop Sciences, and the CSU Center for the Environmental Management of Military Lands (CEMML). CSEG supports the Vision for CIRA by exploring and testing emerging software technologies from outside the atmospheric sciences and incorporating them into our work to support the efficiency and excellence of CIRA’s research themes.

CSEG meets monthly to discuss how new tools and techniques can inform and improve CIRA’s data management, computing, and scientific efforts. CSEG further benefits CIRA’s projects by providing opportunities to discuss common software issues, to collect feedback on ideas, and to brainstorm alternative solutions, as well as assisting in planning future computing infrastructure and collaboratively developing software for general use across CIRA teams. CSEG also offers trainings for software tools that benefit the CIRA community (e.g., CSEG has offered Git training since 2016 and manages a local-network Git repository server).

CSEG is open to all and you need not characterize yourself as a software engineer to participate — all tech junkies are welcome! If you are interested in joining this innovative and vibrant community, please contact cseg@colostate.edu for more information.